Home > Weather > Bottrop > Past weeks

Flag for Germany Past Weather in Bottrop, North Rhine-Westphalia, Germany — Yesterday and Last 2 Weeks

Now
73 °F

Scattered clouds.


Feels Like: 77 °F
Forecast: 57 / 68 °F
Wind: 10 mph from Southwest

Location: Duesseldorf

Current Time: Jul 30, 2016 at 6:59:36 PM

Latest Report: Jul 30, 2016 at 6:20 PM


Visibility: N/A

Pressure: 29.89 "Hg

Humidity: 57%

Dew Point: 57 °F

Location of BottropLocation

Past Weather in Bottrop — Graph

°F

Bottrop Temperature Yesterday

Maximum temperature yesterday: 75 °F (at 4:20 PM)
Minimum temperature yesterday: 61 °F (at 3:20 AM)
Average temperature yesterday: 67 °F

High & Low Weather Summary for the Past Weeks

 TemperatureHumidityPressure
High95 °F (Jul 20, 4:20 PM)100% (Jul 18, 12:50 AM)30.27 "Hg (Jul 18, 12:50 AM)
Low55 °F (Jul 16, 1:20 AM)30% (Jul 20, 2:50 PM)29.83 "Hg (Jul 20, 5:20 PM)
Average71 °F72%30.06 "Hg
* Reported Jul 15 5:20 PM — Jul 30 5:50 PM, Bottrop, Weather by CustomWeather, © 2016

Note: Actual official high and low records may vary slightly from our data, if they occured in-between our weather recording intervals... More about our weather records

Advertising

Bottrop Weather History for the Previous 24 Hours

Scroll right to see more
 ConditionsComfort  
Time TempWeatherWind HumidityBarometerVisibility
5:50 PM
Sat, Jul 30
75 °FScattered clouds.12 mph54%29.89 "HgN/A
5:20 PM77 °FScattered clouds.12 mph51%29.89 "HgN/A
4:50 PM73 °FScattered clouds.7 mph53%29.92 "HgN/A
4:20 PM73 °FScattered clouds.10 mph53%29.92 "HgN/A
3:50 PM75 °FScattered clouds.8 mph54%29.92 "HgN/A
3:20 PM73 °FScattered clouds.8 mph61%29.92 "HgN/A
2:50 PM73 °FScattered clouds.9 mph61%29.92 "HgN/A
2:20 PM72 °FScattered clouds.9 mph65%29.92 "HgN/A
1:50 PM72 °FScattered clouds.10 mph61%29.92 "HgN/A
1:20 PM70 °FScattered clouds.10 mph64%29.92 "HgN/A
12:50 PM72 °FScattered clouds.9 mph61%29.92 "HgN/A
12:20 PM70 °FScattered clouds.7 mph64%29.92 "HgN/A
11:50 AM68 °FPartly sunny.7 mph69%29.92 "HgN/A
11:20 AM66 °FBroken clouds.6 mph73%29.92 "HgN/A
10:50 AM66 °FPartly sunny.7 mph73%29.92 "HgN/A
10:20 AM66 °FPassing clouds.9 mph73%29.92 "HgN/A
9:50 AM64 °FPartly sunny.10 mph78%29.92 "HgN/A
9:20 AM63 °FPartly sunny.14 mph77%29.92 "HgN/A
8:50 AM64 °FPartly sunny.13 mph73%29.92 "HgN/A
8:20 AM64 °FScattered clouds.10 mph73%29.92 "HgN/A
7:50 AM63 °FScattered clouds.13 mph77%29.92 "HgN/A
7:20 AM63 °FScattered clouds.7 mph83%29.92 "HgN/A
6:50 AM63 °FPassing clouds.6 mph77%29.89 "HgN/A
6:20 AM63 °FPassing clouds.9 mph77%29.89 "HgN/A
5:50 AM61 °FPartly cloudy.8 mph88%29.89 "HgN/A
5:20 AM61 °FClear.7 mph83%29.89 "Hg10 mi
4:50 AM63 °FClear.6 mph77%29.89 "Hg10 mi
4:20 AM63 °FClear.6 mph83%29.89 "Hg10 mi
3:50 AM63 °FPassing clouds.6 mph83%29.89 "HgN/A
3:20 AM64 °FPassing clouds.6 mph78%29.89 "HgN/A
2:50 AM63 °FPartly cloudy.7 mph83%29.89 "HgN/A
2:20 AM64 °FPassing clouds.7 mph83%29.89 "HgN/A
1:50 AM63 °FPassing clouds.6 mph88%29.89 "HgN/A
1:20 AM61 °FPassing clouds.3 mph88%29.89 "HgN/A
12:50 AM61 °FClear.2 mph94%29.89 "Hg10 mi
12:20 AM61 °FClear.1 mph88%29.92 "Hg10 mi
11:50 PM
Fri, Jul 29
63 °FPassing clouds.3 mph83%29.89 "HgN/A
11:20 PM64 °FClear.6 mph78%29.89 "Hg10 mi
10:50 PM64 °FClear.7 mph78%29.89 "Hg10 mi
10:20 PM64 °FSunny.5 mph78%29.89 "Hg10 mi
9:50 PM68 °FSunny.5 mph69%29.89 "Hg10 mi
9:20 PM68 °FPassing clouds.5 mph69%29.89 "HgN/A
8:50 PM70 °FPassing clouds.8 mph64%29.89 "HgN/A
8:20 PM72 °FBroken clouds.10 mph61%29.89 "HgN/A
7:50 PM73 °FPartly sunny.12 mph57%29.86 "HgN/A
7:20 PM73 °FScattered clouds.12 mph57%29.86 "HgN/A
6:50 PM75 °FScattered clouds.13 mph57%29.86 "HgN/A
6:20 PM75 °FScattered clouds.13 mph57%29.86 "HgN/A
Weather by CustomWeather, © 2016

See weather overviewHow to use our weather pages